"Pseudo-MPEC" for P22fUZw

Created 2025 Oct 21 17:35:21 UT using Find_Orb

Click here for an explanation of pseudo-MPECs

 
 Astrometry: 
     P22fUZw* C2025 09 29.45970301 51 53.272-21 36 22.61   ~9TL5 22.48wXNEOCPF52
     P22fUZw  C2025 09 29.47078201 51 52.226-21 36 22.83   ~9TL5 22.27wXNEOCPF52
     P22fUZw  C2025 09 29.48180801 51 51.208-21 36 23.05   ~9TL5 22.40wXNEOCPF52
     P22fUZw  C2025 09 29.49295001 51 50.162-21 36 23.57   ~9TL5 22.39wXNEOCPF52
     P22fUZw KC2025 10 01.32446301 49 02.701-21 36 35.75   ~A18Z 22.12GVNEOCPV06
     P22fUZw KC2025 10 01.32923101 49 02.244-21 36 35.78   ~A18Z 22.26GVNEOCPV06
     P22fUZw KC2025 10 01.33399801 49 01.812-21 36 35.53   ~A18Z 22.78GVNEOCPV06
     P22fUZw KC2025 10 01.33876201 49 01.319-21 36 35.93   ~A18Z 22.52GVNEOCPV06

Station data:
(F52) Pan-STARRS 2, Haleakala  (N20.707382 W156.255910)  US/Hawaii.
   Observers J. Herman, T. Lowe, P. Minguez, A. Schultz, I. Smith. Measurers
   K. Chambers, T. de Boer, J. Fairlamb, H. Gao, M. Huber, C.-C. Lin, E.
   Magnier, Y. Ramanjooloo, R. Wainscoat, R. Weryk. 1.8-m Ritchey-Chrétien +
   CCD.
(V06) Catalina Sky Survey-Kuiper  (N32.416871 W110.732550)  US/Arizona.
   Measurers T. Beuden, V. F. Carvajal, D. Fay, J. B. Fazekas, D. C. Fuls, A.
   R. Gibbs, A. D. Grauer, H. Gröller, J. K. Hogan, R. A. Kowalski, S. M.
   Larson, G. J. Leonard, D. Rankin, R. L. Seaman, F. C. Shelly, K. W.
   Wierzchoś. 1.55-m reflector + CCD.

Orbital elements:  P22fUZw
   Perihelion 2025 Feb 27.675565 +/- 336 TT = 16:12:48.8 (JD 2460734.175565)
Epoch 2025 Oct  1.0 TT = JDT 2460949.5   Earth MOID: 0.2352      AutoNEOCP
M  53.583786215 +/- 90              (J2000 ecliptic)
n   0.248851396 +/- 0.112           Peri.  201.580818 +/- 59
a   2.503279414 +/- 0.753           Node    53.831708 +/- 15
e   0.51025328 +/- 0.215            Incl.   26.312560 +/- 17
P   3.96063                H 19.10  G  0.15   U 11.3  SR
q 1.225972869 +/- 0.432    Q 3.780585958 +/- 2.69
From 8 observations 2025 Sept. 29-Oct. 1 (45.1 hr); mean residual 0".15
Residuals in arcseconds: 
250929 F52  .02+  .01-    250929 F52  .02+  .15-    251001 V06  .25+  .20+    
250929 F52  .12-  .05+    251001 V06  .11+  .06+    251001 V06  .36-  .25-    
250929 F52  .07+  .11+    251001 V06  .00   .01-    

Ephemerides (geocentric):
Date (UTC) HH   RA             Dec           delta  r     elong  mag " sig PA
---- --------  ------------   ------------  ------ ------ -----  --- --------
2025 10 21 18  01 18 24.381   -20 26 03.60  1.5562 2.4579 148.0 22.8 5337  64
2025 10 21 19  01 18 20.978   -20 25 47.05  1.5565 2.4581 148.0 22.8 5359  64
2025 10 21 20  01 18 17.577   -20 25 30.48  1.5569 2.4583 148.0 22.8 5381  64
2025 10 21 21  01 18 14.178   -20 25 13.87  1.5573 2.4586 148.0 22.8 5404  64
2025 10 21 22  01 18 10.781   -20 24 57.24  1.5577 2.4588 148.0 22.8 5426  64
2025 10 21 23  01 18 07.387   -20 24 40.57  1.5581 2.4590 147.9 22.8 5448  64
2025 10 22 00  01 18 03.996   -20 24 23.88  1.5584 2.4593 147.9 22.8 5471  64
2025 10 22 01  01 18 00.606   -20 24 07.15  1.5588 2.4595 147.9 22.8 5493  64
2025 10 22 02  01 17 57.220   -20 23 50.40  1.5592 2.4597 147.9 22.8 5516  64
2025 10 22 03  01 17 53.835   -20 23 33.62  1.5596 2.4600 147.9 22.8 5538  64
2025 10 22 04  01 17 50.453   -20 23 16.81  1.5599 2.4602 147.8 22.8 5561  64
2025 10 22 05  01 17 47.074   -20 22 59.97  1.5603 2.4604 147.8 22.8 5584  64
2025 10 22 06  01 17 43.696   -20 22 43.10  1.5607 2.4607 147.8 22.8 5606  64
2025 10 22 07  01 17 40.322   -20 22 26.20  1.5611 2.4609 147.8 22.8 5629  64
2025 10 22 08  01 17 36.949   -20 22 09.27  1.5615 2.4612 147.7 22.8 5652  64
2025 10 22 09  01 17 33.579   -20 21 52.32  1.5619 2.4614 147.7 22.8 5675  64
2025 10 22 10  01 17 30.212   -20 21 35.33  1.5622 2.4616 147.7 22.8 5698  63
2025 10 22 11  01 17 26.847   -20 21 18.32  1.5626 2.4619 147.7 22.8 5721  63
2025 10 22 12  01 17 23.484   -20 21 01.27  1.5630 2.4621 147.7 22.8 5744  63
2025 10 22 13  01 17 20.124   -20 20 44.20  1.5634 2.4623 147.6 22.8 5767  63
2025 10 22 14  01 17 16.767   -20 20 27.10  1.5638 2.4626 147.6 22.8 5790  63
2025 10 22 15  01 17 13.411   -20 20 09.97  1.5642 2.4628 147.6 22.8 5813  63
2025 10 22 16  01 17 10.059   -20 19 52.81  1.5645 2.4630 147.6 22.8 5836  63
2025 10 22 17  01 17 06.709   -20 19 35.62  1.5649 2.4633 147.6 22.8 5859  63
2025 10 22 18  01 17 03.361   -20 19 18.40  1.5653 2.4635 147.5 22.8 5883  63
2025 10 22 19  01 17 00.015   -20 19 01.15  1.5657 2.4637 147.5 22.8 5906  63
2025 10 22 20  01 16 56.673   -20 18 43.88  1.5661 2.4640 147.5 22.8 5929  63
2025 10 22 21  01 16 53.332   -20 18 26.57  1.5665 2.4642 147.5 22.8 5953  63
2025 10 22 22  01 16 49.995   -20 18 09.24  1.5669 2.4644 147.4 22.8 5976  63
2025 10 22 23  01 16 46.659   -20 17 51.88  1.5673 2.4647 147.4 22.8 6000  63
2025 10 23 00  01 16 43.326   -20 17 34.49  1.5676 2.4649 147.4 22.8 6023  63
2025 10 23 01  01 16 39.996   -20 17 17.07  1.5680 2.4651 147.4 22.8 6047  63
2025 10 23 02  01 16 36.668   -20 16 59.62  1.5684 2.4654 147.3 22.8 6070  63
2025 10 23 03  01 16 33.343   -20 16 42.14  1.5688 2.4656 147.3 22.8 6094  63
2025 10 23 04  01 16 30.020   -20 16 24.64  1.5692 2.4658 147.3 22.8 6118  63
2025 10 23 05  01 16 26.700   -20 16 07.11  1.5696 2.4661 147.3 22.8 6142  63
2025 10 23 06  01 16 23.382   -20 15 49.54  1.5700 2.4663 147.3 22.8 6166  63
2025 10 23 07  01 16 20.067   -20 15 31.95  1.5704 2.4666 147.2 22.8 6189  63
2025 10 23 08  01 16 16.755   -20 15 14.33  1.5708 2.4668 147.2 22.8 6213  63
2025 10 23 09  01 16 13.444   -20 14 56.69  1.5712 2.4670 147.2 22.8 6237  63
2025 10 23 10  01 16 10.137   -20 14 39.01  1.5716 2.4673 147.2 22.8 6261  63
2025 10 23 11  01 16 06.832   -20 14 21.30  1.5720 2.4675 147.1 22.8 6286  63
2025 10 23 12  01 16 03.530   -20 14 03.57  1.5723 2.4677 147.1 22.8 6310  63
2025 10 23 13  01 16 00.230   -20 13 45.81  1.5727 2.4680 147.1 22.8 6334  63
2025 10 23 14  01 15 56.932   -20 13 28.02  1.5731 2.4682 147.1 22.8 6358  63
2025 10 23 15  01 15 53.638   -20 13 10.20  1.5735 2.4684 147.0 22.8 6382  63
2025 10 23 16  01 15 50.345   -20 12 52.36  1.5739 2.4687 147.0 22.8 6407  63
2025 10 23 17  01 15 47.056   -20 12 34.48  1.5743 2.4689 147.0 22.8 6431  63